Regional Weather Roundup
Issued by NWS State College, PA

Home | Current Version | Previous Version | Graphics & Text | Print | Product List | Glossary On
Versions: 1 2 3 4 5 6 7 8 9 10 11 12 13 14 15 16 17 18 19 20 21 22 23 24 25 26 27 28 29 30 31 32 33 34 35 36 37 38 39 40 41 42 43 44 45 46 47 48 49 50
000
ASUS41 KCTP 300503
RWRCTP

REGIONAL WEATHER ROUNDUP
NATIONAL WEATHER SERVICE STATE COLLEGE PA
100 AM EDT SAT MAY 30 2015

Note: "fair" indicates few or no clouds below 12,000 feet with no
significant weather and/or obstructions to visibility.

* = STATION THAT DOES NOT REPORT PRECIPITATION /E.G. RAIN...SNOW...ETC/
    THUNDER OR FOG.

PAZ002>004-007>009-013>016-020>023-029>032-300600-
WESTERN PENNSYLVANIA

CITY           SKY/WX    TMP DP  RH WIND       PRES   REMARKS
ERIE           PTCLDY    73  63  70 S16G23    30.04F
MEADVILLE      LGT RAIN  68  62  81 VRB5      30.10F
FRANKLIN*      CLEAR     64  61  88 S8        30.14S
NEW CASTLE     FAIR      69  67  93 CALM      30.11F
BEAVER COUNTY  NOT AVBL
BUTLER*        PTCLDY    68  64  88 S5        30.15S
PITTSBURGH INT MOCLDY    71  65  81 S5        30.12S
PITTSBURGH     PTCLDY    69  62  78 SE7       30.13S
INDIANA*       PTCLDY    68  64  88 S3        30.18F
LATROBE        PTCLDY    68  66  94 SW3       30.16S
WASHINGTON CO* CLOUDY    64  63  94 CALM      30.15S
$$

PAZ004>006-010>012-017>019-024>028-033>037-041-042-045-046-049>053-300600-
CENTRAL PENNSYLVANIA

CITY           SKY/WX    TMP DP  RH WIND       PRES   REMARKS
BRADFORD       PTCLDY    67  63  87 S6        30.16F
DUBOIS         CLEAR     69  64  84 S6        30.15S
CLEARFIELD     CLEAR     66  64  93 SW3       30.17S
JOHNSTOWN      CLEAR     66  62  87 S7        30.20F
ALTOONA        CLEAR     71  64  78 S9        30.19F
STATE COLLEGE  PTCLDY    72  65  79 SW6       30.17F
WILLIAMSPORT   PTCLDY    76  65  68 S15G23    30.13F
SELINSGROVE    PTCLDY    73  66  78 S3        30.17F
FT INDIANTOWN  CLOUDY    69  67  91 CALM      30.18F
CAPITAL CITY   CLEAR     73  65  75 SE7       30.17F
HARRISBURG     PTCLDY    74  66  76 S6        30.17F
YORK           PTCLDY    72  65  78 VRB5      30.18F
$$

PAZ038>040-043-044-047-048-054-055-060>062-067>071-300600-
EASTERN PENNSYLVANIA

CITY           SKY/WX    TMP DP  RH WIND       PRES   REMARKS
SCRANTON       PTCLDY    71  62  73 VRB3      30.18F
MOUNT POCONO   MOCLDY    64  59  83 S6        30.23F
ALLENTOWN      MOCLDY    73  65  75 S7        30.20F
QUAKERTOWN*    PTCLDY    68  64  88 S5        30.21F
READING        PTCLDY    71  65  81 SE7       30.18F
LANCASTER      PTCLDY    70  66  87 SE3       30.19F
COATESVILLE    PTCLDY    66  66 100 CALM      30.22F
POTTSTOWN      PTCLDY    69  64  84 CALM      30.22F
BLUE BELL      MOCLDY    70  63  78 CALM      30.21S
DOYLESTOWN     MOCLDY    65  32  29 SE3       30.20F
WILLOW GROVE   NOT AVBL
NORTH PHILA    MOCLDY    71  59  65 S3        30.22F
PHILADELPHIA   MOCLDY    71  63  75 S6        30.21F
$$



USA.gov is the U.S. government's official web portal to all federal, state and local government web resources and services.